| time (UTC) | temp F | wind direction | speed MPH | gust MPH | rain 1hr in | rain 24hr in | rain mn in | humidity % | barometer mb |
| 20260901190025 | 78 | 222 | 0.0 | 3.0 | 0.00 | 1.05 | 0.90 | 91 | 1013.3 |
| 20260901184526 | 77 | 297 | 0.0 | 4.0 | 0.00 | 1.07 | 0.90 | 93 | 1013.2 |
| 20260901183019 | 76 | 206 | 1.0 | 3.0 | 0.00 | 1.07 | 0.90 | 95 | 1013.2 |
| 20260901181517 | 76 | 5 | 1.0 | 3.0 | 0.00 | 1.07 | 0.90 | 95 | 1012.9 |
| 20260901180016 | 75 | 5 | 0.0 | 2.0 | 0.00 | 1.07 | 0.90 | 95 | 1013.0 |
| 20260901174512 | 74 | 5 | 0.0 | 1.0 | 0.00 | 1.13 | 0.90 | 96 | 1013.0 |
| 20260901173009 | 72 | 5 | 0.0 | 2.0 | 0.00 | 1.13 | 0.90 | 95 | 1013.1 |
| 20260901171512 | 72 | 5 | 0.0 | 2.0 | 0.00 | 1.13 | 0.90 | 95 | 1013.1 |
| 20260901170007 | 71 | 5 | 1.0 | 3.0 | 0.00 | 1.25 | 0.90 | 95 | 1013.0 |
| 20260901164504 | 71 | 5 | 1.0 | 3.0 | 0.00 | 1.25 | 0.90 | 95 | 1013.1 |
| 20260901163003 | 71 | 5 | 0.0 | 4.0 | 0.00 | 1.25 | 0.90 | 95 | 1013.1 |
| 20260901161502 | 71 | 5 | 2.0 | 4.0 | 0.00 | 1.25 | 0.90 | 95 | 1013.3 |
| 20260901160100 | 71 | 5 | 1.0 | 4.0 | 0.00 | 1.25 | 0.90 | 95 | 1013.3 |
| 20260901154600 | 71 | 5 | 2.0 | 3.0 | 0.00 | 1.29 | 0.90 | 95 | 1013.4 |
| 20260901153101 | 70 | 5 | 1.0 | 2.0 | 0.00 | 1.29 | 0.90 | 95 | 1013.4 |
| 20260901151557 | 70 | 5 | 1.0 | 4.0 | 0.00 | 1.29 | 0.90 | 95 | 1013.4 |
| 20260901144556 | 70 | 5 | 0.0 | 3.0 | 0.07 | 1.29 | 0.90 | 95 | 1013.3 |
| 20260901143105 | 70 | 5 | 1.0 | 6.0 | 0.23 | 1.29 | 0.90 | 95 | 1013.4 |
| 20260901141553 | 69 | 200 | 5.0 | 11.0 | 0.23 | 1.29 | 0.90 | 95 | 1013.5 |
| 20260901140053 | 68 | 20 | 0.0 | 2.0 | 0.21 | 1.25 | 0.86 | 95 | 1013.9 |
| 20260901134616 | 68 | 20 | 1.0 | 5.0 | 0.30 | 1.22 | 0.83 | 95 | 1013.7 |
| 20260901133057 | 69 | 20 | 2.0 | 5.0 | 0.40 | 1.06 | 0.67 | 95 | 1013.8 |
| 20260901131547 | 68 | 171 | 1.0 | 4.0 | 0.49 | 1.06 | 0.67 | 95 | 1013.9 |
| 20260901130046 | 68 | 182 | 0.0 | 4.0 | 0.57 | 1.03 | 0.64 | 95 | 1014.1 |
| 20260901124553 | 67 | 294 | 3.0 | 4.0 | 0.46 | 0.91 | 0.52 | 95 | 1014.0 |
| 20260901123045 | 67 | 16 | 0.0 | 5.0 | 0.22 | 0.66 | 0.27 | 95 | 1014.4 |
| 20260901121545 | 67 | 37 | 2.0 | 6.0 | 0.12 | 0.56 | 0.17 | 95 | 1014.7 |
| 20260901120041 | 67 | 24 | 3.0 | 5.0 | 0.02 | 0.45 | 0.06 | 95 | 1014.3 |
| 20260901114553 | 67 | 24 | 3.0 | 6.0 | 0.02 | 0.45 | 0.06 | 95 | 1013.9 |
| 20260901113039 | 66 | 29 | 0.0 | 5.0 | 0.01 | 0.44 | 0.05 | 95 | 1014.0 |
| 20260901111540 | 66 | 150 | 2.0 | 5.0 | 0.01 | 0.44 | 0.05 | 94 | 1013.4 |
| 20260901110040 | 66 | 150 | 0.0 | 3.0 | 0.00 | 0.43 | 0.04 | 95 | 1013.3 |
| 20260901104536 | 66 | 150 | 0.0 | 1.0 | 0.00 | 0.43 | 0.04 | 95 | 1013.5 |
| 20260901103035 | 66 | 150 | 0.0 | 1.0 | 0.00 | 0.43 | 0.04 | 94 | 1013.9 |
| 20260901101534 | 66 | 150 | 0.0 | 0.0 | 0.00 | 0.43 | 0.04 | 94 | 1013.6 |
| 20260901100039 | 66 | 150 | 0.0 | 0.0 | 0.00 | 0.43 | 0.04 | 94 | 1013.6 |
| 20260901094534 | 66 | 150 | 0.0 | 3.0 | 0.00 | 0.43 | 0.04 | 94 | 1013.7 |
| 20260901093034 | 65 | 150 | 0.0 | 1.0 | 0.00 | 0.43 | 0.04 | 94 | 1013.6 |
| 20260901091532 | 65 | 150 | 1.0 | 2.0 | 0.00 | 0.43 | 0.04 | 94 | 1014.0 |
| 20260901090030 | 65 | 150 | 0.0 | 2.0 | 0.01 | 0.43 | 0.04 | 94 | 1014.0 |
| 20260901084528 | 65 | 150 | 0.0 | 1.0 | 0.04 | 0.43 | 0.04 | 94 | 1014.4 |
| 20260901083028 | 65 | 150 | 0.0 | 1.0 | 0.04 | 0.43 | 0.04 | 94 | 1014.5 |
| 20260901081536 | 65 | 150 | 0.0 | 0.0 | 0.04 | 0.43 | 0.04 | 94 | 1014.6 |
| 20260901080029 | 65 | 150 | 0.0 | 2.0 | 0.03 | 0.42 | 0.03 | 94 | 1014.7 |
| 20260901074524 | 65 | 150 | 0.0 | 1.0 | 0.00 | 0.39 | 0.00 | 94 | 1014.8 |
| 20260901073024 | 65 | 150 | 0.0 | 2.0 | 0.00 | 0.39 | 0.00 | 94 | 1014.7 |
| 20260901071525 | 65 | 150 | 1.0 | 2.0 | 0.00 | 0.39 | 0.00 | 94 | 1014.7 |
| 20260901070022 | 65 | 150 | 0.0 | 1.0 | 0.00 | 0.39 | 0.00 | 94 | 1014.7 |
| 20260901064524 | 65 | 150 | 0.0 | 1.0 | 0.00 | 0.39 | 0.00 | 94 | 1014.9 |
| 20260901063030 | 65 | 150 | 0.0 | 1.0 | 0.00 | 0.39 | 0.00 | 94 | 1014.7 |
| 20260901061520 | 65 | 150 | 0.0 | 2.0 | 0.00 | 0.39 | 0.00 | 94 | 1015.0 |
| 20260901060018 | 65 | 150 | 1.0 | 2.0 | 0.00 | 0.39 | 0.00 | 94 | 1015.2 |
| 20260901054530 | 66 | 150 | 0.0 | 2.0 | 0.00 | 0.39 | 0.00 | 94 | 1015.4 |
| 20260901053019 | 66 | 150 | 0.0 | 1.0 | 0.00 | 0.39 | 0.00 | 94 | 1015.3 |
| 20260901051516 | 66 | 150 | 0.0 | 2.0 | 0.00 | 0.39 | 0.00 | 94 | 1015.6 |
| 20260901050014 | 66 | 150 | 0.0 | 2.0 | 0.00 | 0.39 | 0.00 | 94 | 1015.6 |
| 20260901044515 | 66 | 150 | 0.0 | 0.0 | 0.00 | 0.39 | 0.00 | 94 | 1015.4 |
| 20260901043012 | 66 | 150 | 0.0 | 0.0 | 0.00 | 0.39 | 0.00 | 93 | 1015.6 |
| 20260901041510 | 66 | 150 | 0.0 | 1.0 | 0.00 | 0.39 | 0.00 | 94 | 1015.5 |
| 20260901040008 | 66 | 150 | 1.0 | 2.0 | 0.00 | 0.39 | 0.39 | 94 | 1015.6 |
| 20260901034518 | 66 | 150 | 0.0 | 0.0 | 0.00 | 0.39 | 0.39 | 93 | 1015.5 |
| 20260901033012 | 67 | 150 | 0.0 | 0.0 | 0.00 | 0.39 | 0.39 | 93 | 1015.6 |
| 20260901031520 | 67 | 150 | 0.0 | 1.0 | 0.00 | 0.39 | 0.39 | 93 | 1015.6 |
| 20260901030007 | 67 | 150 | 1.0 | 2.0 | 0.00 | 0.39 | 0.39 | 93 | 1015.5 |
| 20260901024506 | 67 | 150 | 0.0 | 1.0 | 0.00 | 0.39 | 0.39 | 93 | 1015.6 |
| 20260901023007 | 67 | 150 | 0.0 | 3.0 | 0.01 | 0.39 | 0.39 | 93 | 1015.7 |
| 20260901021504 | 67 | 150 | 1.0 | 3.0 | 0.01 | 0.39 | 0.39 | 93 | 1015.8 |
| 20260901020004 | 67 | 150 | 2.0 | 5.0 | 0.01 | 0.39 | 0.39 | 93 | 1016.0 |
| 20260901014503 | 67 | 346 | 2.0 | 8.0 | 0.01 | 0.39 | 0.39 | 93 | 1016.2 |
| 20260901013003 | 67 | 221 | 0.0 | 2.0 | 0.00 | 0.38 | 0.38 | 93 | 1016.1 |
| 20260901011600 | 67 | 160 | 5.0 | 9.0 | 0.01 | 0.38 | 0.38 | 92 | 1016.3 |
| 20260901010100 | 68 | 96 | 1.0 | 3.0 | 0.01 | 0.38 | 0.38 | 92 | 1016.2 |
| 20260901004601 | 68 | 96 | 1.0 | 2.0 | 0.01 | 0.38 | 0.38 | 91 | 1015.8 |
| 20260901003059 | 68 | 96 | 2.0 | 4.0 | 0.01 | 0.38 | 0.38 | 90 | 1015.7 |
| 20260901001559 | 70 | 96 | 0.0 | 3.0 | 0.00 | 0.37 | 0.37 | 90 | 1015.5 |
| 20260901000057 | 70 | 96 | 0.0 | 2.0 | 0.00 | 0.37 | 0.37 | 90 | 1015.5 |
| 20260831234600 | 70 | 96 | 1.0 | 2.0 | 0.00 | 0.37 | 0.37 | 90 | 1015.7 |
| 20260831233055 | 70 | 96 | 1.0 | 3.0 | 0.01 | 0.37 | 0.37 | 91 | 1015.8 |
| 20260831231551 | 69 | 96 | 0.0 | 2.0 | 0.03 | 0.37 | 0.37 | 93 | 1016.0 |
| 20260831230049 | 68 | 96 | 0.0 | 3.0 | 0.03 | 0.37 | 0.37 | 93 | 1016.0 |
| 20260831224547 | 68 | 96 | 0.0 | 1.0 | 0.03 | 0.37 | 0.37 | 93 | 1016.1 |
| 20260831223049 | 68 | 96 | 0.0 | 0.0 | 0.03 | 0.36 | 0.36 | 93 | 1016.4 |
| 20260831221555 | 68 | 96 | 0.0 | 2.0 | 0.02 | 0.34 | 0.34 | 93 | 1016.6 |
| 20260831220042 | 68 | 96 | 0.0 | 1.0 | 0.02 | 0.34 | 0.34 | 93 | 1016.6 |
| 20260831214543 | 68 | 96 | 0.0 | 1.0 | 0.02 | 0.34 | 0.34 | 93 | 1016.8 |
| 20260831213044 | 68 | 96 | 0.0 | 0.0 | 0.01 | 0.33 | 0.33 | 93 | 1016.8 |
| 20260831211541 | 68 | 96 | 0.0 | 1.0 | 0.00 | 0.32 | 0.32 | 93 | 1017.0 |
| 20260831210040 | 67 | 96 | 0.0 | 1.0 | 0.01 | 0.32 | 0.32 | 93 | 1016.9 |
| 20260831204541 | 67 | 96 | 0.0 | 3.0 | 0.05 | 0.32 | 0.32 | 93 | 1016.8 |
| 20260831203100 | 68 | 96 | 1.0 | 2.0 | 0.06 | 0.32 | 0.32 | 93 | 1016.7 |
| 20260831201538 | 67 | 96 | 0.0 | 2.0 | 0.08 | 0.32 | 0.32 | 93 | 1016.8 |
| 20260831200112 | 67 | 96 | 0.0 | 3.0 | 0.07 | 0.31 | 0.31 | 93 | 1017.0 |
| 20260831194538 | 67 | 96 | 0.0 | 2.0 | 0.03 | 0.27 | 0.27 | 93 | 1017.0 |
| 20260831193035 | 67 | 96 | 1.0 | 3.0 | 0.01 | 0.25 | 0.25 | 93 | 1017.0 |
| 20260831191532 | 67 | 96 | 1.0 | 3.0 | 0.01 | 0.24 | 0.24 | 93 | 1017.5 |